FW7384 Weather Reports


Display with metric or nautical units.
time (UTC)temp
F
wind
direction
speed
MPH
gust
MPH
rain 1hr
in
rain 24hr
in
rain mn
in
humidity
%
barometer
mb
20260904024003 54 208 3.0 8.0 0.00 0.09 0.01 99 1002.4
20260904023503 54 230 3.0 8.0 0.00 0.09 0.01 99 1002.6
20260904023004 55 232 3.0 8.0 0.00 0.09 0.01 99 1002.4
20260904022503 55 213 3.0 8.0 0.00 0.09 0.01 99 1002.6
20260904022213 55 203 3.0 8.0 0.00 0.09 0.01 99 1002.5
20260904021503 55 209 4.0 8.0 0.00 0.09 0.01 99 1002.4
20260904021215 55 214 4.0 8.0 0.00 0.09 0.01 99 1002.4
20260904020714 55 224 3.0 7.0 0.00 0.09 0.01 99 1002.5
20260904020213 55 225 3.0 8.0 0.00 0.09 0.01 99 1002.4
20260904015503 55 220 2.0 8.0 0.00 0.09 0.01 99 1002.4
20260904015003 55 205 1.0 8.0 0.00 0.09 0.01 99 1002.6
20260904014503 55 235 2.0 6.0 0.00 0.09 0.01 99 1002.3
20260904014003 55 237 1.0 6.0 0.00 0.09 0.01 99 1002.3
20260904013503 55 222 2.0 6.0 0.00 0.09 0.01 99 1002.3
20260904013214 55 211 2.0 7.0 0.00 0.09 0.01 99 1002.3
20260904012503 55 218 3.0 10.0 0.00 0.09 0.01 99 1002.4
20260904012003 55 229 3.0 10.0 0.00 0.09 0.01 99 1002.4
20260904011503 56 233 3.0 10.0 0.00 0.09 0.01 99 1002.7
20260904011003 56 247 3.0 10.0 0.00 0.09 0.01 99 1002.7
20260904010503 56 226 2.0 8.0 0.00 0.09 0.01 99 1002.7
20260904010214 56 226 2.0 8.0 0.00 0.09 0.01 99 1002.7
20260904005713 56 200 3.0 8.0 0.00 0.09 0.01 99 1002.9
20260904005003 56 219 3.0 6.0 0.00 0.09 0.01 99 1002.7
20260904004503 56 230 2.0 4.0 0.00 0.09 0.01 99 1002.9
20260904004004 56 224 2.0 4.0 0.01 0.09 0.01 99 1002.9
20260904003503 56 221 2.0 5.0 0.01 0.09 0.01 99 1002.8
20260904003003 56 202 2.0 8.0 0.01 0.09 0.01 99 1002.8
20260904002503 56 183 3.0 8.0 0.01 0.09 0.01 99 1002.8
20260904002214 56 185 3.0 8.0 0.01 0.09 0.01 99 1002.7
20260904001503 55 190 2.0 5.0 0.01 0.09 0.01 99 1002.8
20260904001004 55 177 2.0 5.0 0.01 0.09 0.01 99 1002.7
20260904000503 55 164 2.0 4.0 0.01 0.09 0.01 99 1003.1
20260904000003 55 155 1.0 3.0 0.01 0.09 0.01 99 1002.8
20260903235503 55 144 1.0 3.0 0.01 0.09 0.01 99 1002.9
20260903235214 55 141 2.0 3.0 0.01 0.09 0.01 99 1003.0
20260903234503 55 149 2.0 3.0 0.01 0.09 0.01 99 1002.9
20260903234003 55 156 1.0 3.0 0.00 0.07 0.00 99 1003.2
20260903233503 55 150 1.0 3.0 0.00 0.07 0.00 99 1003.2
20260903233214 55 148 2.0 3.0 0.00 0.07 0.00 99 1003.3
20260903232713 55 146 1.0 4.0 0.00 0.07 0.00 99 1003.1
20260903232003 55 152 1.0 4.0 0.00 0.07 0.00 99 1003.1
20260903231503 55 143 2.0 4.0 0.00 0.07 0.00 99 1003.0
20260903231214 55 139 2.0 4.0 0.00 0.07 0.00 99 1003.2
20260903230713 55 139 2.0 4.0 0.00 0.07 0.00 99 1003.2
20260903230003 55 145 2.0 4.0 0.00 0.07 0.00 99 1003.4
20260903225503 55 135 2.0 4.0 0.00 0.07 0.00 99 1003.6
20260903225003 55 131 1.0 3.0 0.00 0.07 0.00 99 1003.2
20260903224503 55 103 1.0 3.0 0.00 0.07 0.00 99 1003.4
20260903224003 55 99 1.0 3.0 0.00 0.07 0.00 99 1003.6
20260903223503 55 114 1.0 3.0 0.00 0.07 0.00 99 1003.5
20260903223004 55 122 1.0 3.0 0.00 0.07 0.00 99 1003.6
20260903222503 55 140 1.0 3.0 0.00 0.07 0.00 99 1003.5
20260903222004 55 156 1.0 3.0 0.00 0.07 0.00 99 1003.7
20260903221714 55 166 1.0 2.0 0.00 0.07 0.00 99 1003.8
20260903221003 55 146 0.0 2.0 0.00 0.07 0.00 99 1003.7
20260903220714 55 146 0.0 2.0 0.00 0.07 0.00 99 1003.8
20260903220213 55 166 0.0 2.0 0.00 0.07 0.00 99 1003.7
20260903215503 56 10 0.0 2.0 0.00 0.07 0.07 99 1003.9
20260903215003 55 16 0.0 2.0 0.00 0.07 0.07 99 1003.5
20260903214503 55 14 1.0 2.0 0.00 0.07 0.07 99 1003.8
20260903214003 55 9 1.0 2.0 0.00 0.07 0.07 99 1003.7
20260903213503 55 10 1.0 2.0 0.00 0.07 0.07 99 1003.8
20260903213213 55 3 1.0 2.0 0.00 0.07 0.07 99 1003.8
20260903212504 56 12 0.0 2.0 0.00 0.07 0.07 99 1004.0
20260903212003 56 9 0.0 2.0 0.00 0.07 0.07 99 1004.0
20260903211714 56 18 0.0 2.0 0.00 0.07 0.07 99 1003.9
20260903211215 56 29 0.0 1.0 0.00 0.07 0.07 99 1004.0
20260903210503 56 0 0.0 0.0 0.00 0.07 0.07 99 1004.2
20260903210213 56 0 0.0 0.0 0.00 0.07 0.07 99 1004.1
20260903205714 56 212 0.0 1.0 0.00 0.07 0.07 99 1004.4
20260903205004 56 222 0.0 1.0 0.00 0.07 0.07 99 1004.2
20260903204503 56 232 0.0 2.0 0.00 0.07 0.07 99 1004.5
20260903204213 56 156 0.0 2.0 0.00 0.07 0.07 99 1004.2
20260903203714 56 151 0.0 2.0 0.00 0.07 0.07 99 1004.3
20260903203004 56 0 0.0 0.0 0.00 0.07 0.07 99 1004.2
20260903202504 56 15 0.0 2.0 0.00 0.07 0.07 99 1004.2
20260903202004 56 12 0.0 2.0 0.00 0.07 0.07 99 1004.3
20260903201503 56 4 0.0 2.0 0.00 0.07 0.07 99 1004.1
20260903201212 56 3 0.0 2.0 0.00 0.07 0.07 99 1004.3
20260903200503 56 322 0.0 2.0 0.00 0.07 0.07 99 1004.4
20260903200214 56 280 0.0 2.0 0.00 0.07 0.07 99 1004.5
20260903195503 56 259 0.0 2.0 0.00 0.07 0.07 99 1004.5
20260903195003 56 256 0.0 2.0 0.00 0.07 0.07 99 1004.6
20260903194503 56 291 0.0 2.0 0.00 0.07 0.07 99 1004.6
20260903194003 56 304 0.0 2.0 0.00 0.07 0.07 99 1004.4
20260903193503 56 200 0.0 1.0 0.00 0.07 0.07 99 1004.7
20260903193003 56 267 0.0 2.0 0.00 0.07 0.07 99 1004.6
20260903192503 56 285 1.0 2.0 0.00 0.07 0.07 99 1004.6
20260903192003 56 301 1.0 2.0 0.00 0.07 0.07 99 1004.7
20260903191504 56 314 1.0 2.0 0.00 0.07 0.07 99 1004.5
20260903191003 56 266 1.0 2.0 0.00 0.07 0.07 99 1004.7
20260903190503 56 308 1.0 2.0 0.00 0.07 0.07 99 1004.9
20260903190003 56 3 1.0 2.0 0.00 0.07 0.07 98 1004.8
20260903185504 56 345 0.0 2.0 0.00 0.07 0.07 98 1004.9
20260903185214 56 280 0.0 1.0 0.00 0.07 0.07 98 1004.7
20260903184504 56 223 0.0 1.0 0.00 0.07 0.07 98 1004.7
20260903184003 56 217 0.0 1.0 0.00 0.07 0.07 98 1004.9
20260903183503 56 352 0.0 1.0 0.00 0.07 0.07 98 1004.9
20260903183003 56 358 0.0 2.0 0.00 0.07 0.07 98 1004.8
20260903182713 56 357 0.0 2.0 0.00 0.07 0.07 98 1004.8
20260903182003 56 351 0.0 1.0 0.00 0.07 0.07 98 1004.8
20260903181504 56 44 0.0 1.0 0.00 0.07 0.07 98 1004.9
20260903181004 56 19 0.0 1.0 0.00 0.07 0.07 98 1004.9
20260903180503 56 22 0.0 1.0 0.00 0.07 0.07 98 1005.0
20260903180214 56 343 0.0 2.0 0.00 0.07 0.07 98 1004.9
20260903175503 56 324 0.0 2.0 0.00 0.07 0.07 98 1004.9
20260903175214 56 358 0.0 2.0 0.00 0.07 0.07 98 1004.9
20260903174715 56 5 1.0 2.0 0.00 0.07 0.07 98 1004.8
20260903174003 56 6 1.0 2.0 0.00 0.07 0.07 98 1004.8
20260903173503 57 11 1.0 2.0 0.01 0.07 0.07 98 1004.9
20260903173003 57 35 1.0 2.0 0.02 0.07 0.07 97 1005.0
20260903172503 57 97 0.0 1.0 0.04 0.07 0.07 97 1005.1
20260903172003 57 39 0.0 1.0 0.04 0.07 0.07 97 1005.2
20260903171503 57 50 0.0 2.0 0.04 0.07 0.07 97 1005.1
20260903171004 57 102 1.0 2.0 0.04 0.07 0.07 97 1005.4
20260903170503 57 123 1.0 2.0 0.05 0.07 0.07 97 1005.3
20260903170213 57 131 1.0 2.0 0.05 0.07 0.07 97 1005.6
20260903165503 57 129 0.0 2.0 0.05 0.07 0.07 97 1005.4
20260903165003 57 127 0.0 2.0 0.05 0.07 0.07 96 1005.3
20260903164714 57 125 0.0 2.0 0.06 0.07 0.07 96 1005.6
20260903164213 57 121 0.0 2.0 0.06 0.07 0.07 96 1005.4
20260903163503 57 134 1.0 3.0 0.05 0.06 0.06 96 1005.3
20260903163003 57 122 1.0 3.0 0.04 0.05 0.05 96 1005.6
20260903162714 57 120 1.0 3.0 0.03 0.04 0.04 96 1005.8
20260903162003 57 67 1.0 2.0 0.02 0.03 0.03 96 1005.8
20260903161714 57 1 0.0 2.0 0.02 0.03 0.03 96 1005.7
20260903161003 57 9 1.0 2.0 0.02 0.03 0.03 95 1005.7
20260903160503 57 7 0.0 2.0 0.02 0.02 0.02 95 1005.8
20260903160003 57 61 0.0 2.0 0.01 0.02 0.02 95 1005.8
20260903155503 58 134 0.0 2.0 0.01 0.02 0.02 95 1005.9
20260903155003 58 19 1.0 2.0 0.01 0.02 0.02 95 1005.9
20260903154504 58 19 1.0 2.0 0.00 0.01 0.01 94 1006.0
20260903154003 58 77 0.0 2.0 0.00 0.01 0.01 94 1006.2
20260903153503 58 155 0.0 2.0 0.00 0.01 0.01 94 1006.1
20260903153003 57 175 0.0 2.0 0.00 0.01 0.01 94 1006.2
20260903152503 57 167 1.0 3.0 0.00 0.01 0.01 94 1006.3
20260903152213 57 159 1.0 3.0 0.00 0.01 0.01 94 1006.4
20260903151503 58 164 1.0 3.0 0.00 0.01 0.01 94 1006.6
20260903151003 58 152 1.0 3.0 0.00 0.01 0.01 94 1006.6
20260903150504 58 156 1.0 4.0 0.00 0.01 0.01 93 1006.6
20260903150003 58 180 2.0 4.0 0.00 0.01 0.01 93 1006.6
20260903145713 58 190 2.0 6.0 0.00 0.01 0.01 93 1006.7
20260903145003 58 174 2.0 6.0 0.00 0.01 0.01 92 1006.7
20260903144504 58 177 3.0 6.0 0.00 0.01 0.01 92 1007.0
20260903144003 58 178 3.0 6.0 0.00 0.01 0.01 91 1006.8
20260903143503 58 177 3.0 6.0 0.00 0.01 0.01 90 1006.9
20260903143004 58 151 2.0 5.0 0.00 0.01 0.01 90 1007.0
20260903142713 58 146 2.0 5.0 0.00 0.01 0.01 91 1007.0
20260903142003 58 187 1.0 4.0 0.00 0.01 0.01 91 1007.1
20260903141503 58 175 2.0 4.0 0.01 0.01 0.01 92 1007.2
20260903141003 57 174 2.0 4.0 0.01 0.01 0.01 92 1007.1
20260903140503 57 175 2.0 5.0 0.01 0.01 0.01 92 1007.2
20260903140003 57 163 2.0 5.0 0.01 0.01 0.01 92 1007.3
20260903135503 57 165 2.0 5.0 0.01 0.01 0.01 92 1007.2
20260903135003 57 172 1.0 4.0 0.01 0.01 0.01 92 1007.4
20260903134713 57 173 1.0 4.0 0.01 0.01 0.01 92 1007.3
20260903134214 57 172 1.0 2.0 0.01 0.01 0.01 92 1007.3
20260903133503 57 160 2.0 5.0 0.01 0.01 0.01 93 1007.5
20260903133214 56 159 2.0 5.0 0.01 0.01 0.01 92 1007.6
20260903132503 57 169 2.0 4.0 0.00 0.00 0.00 92 1007.5
20260903132003 57 158 2.0 4.0 0.00 0.00 0.00 91 1007.8
20260903131503 57 171 2.0 5.0 0.00 0.00 0.00 91 1007.8
20260903131003 57 180 3.0 6.0 0.00 0.00 0.00 91 1007.6
20260903130503 57 183 3.0 6.0 0.00 0.00 0.00 89 1007.8
20260903130214 57 185 3.0 6.0 0.00 0.00 0.00 88 1007.8
20260903125503 57 183 4.0 7.0 0.00 0.00 0.00 87 1007.8
20260903125003 57 183 4.0 8.0 0.00 0.00 0.00 86 1008.0
20260903124715 58 187 4.0 8.0 0.00 0.00 0.00 85 1008.0
20260903124214 58 190 3.0 8.0 0.00 0.00 0.00 84 1008.0
20260903123504 58 185 3.0 6.0 0.00 0.00 0.00 84 1008.1
20260903123003 58 188 3.0 7.0 0.00 0.00 0.00 84 1008.2
20260903122503 58 195 3.0 7.0 0.00 0.00 0.00 84 1008.1
20260903122003 58 195 3.0 7.0 0.00 0.00 0.00 83 1008.2
20260903121712 58 183 2.0 7.0 0.00 0.00 0.00 83 1008.1
20260903121213 57 178 2.0 6.0 0.00 0.00 0.00 84 1008.3
20260903120503 57 185 4.0 13.0 0.00 0.00 0.00 84 1008.5
20260903120004 57 179 5.0 13.0 0.00 0.00 0.00 84 1008.5
20260903115503 57 177 5.0 11.0 0.00 0.00 0.00 83 1008.4
20260903115003 57 172 5.0 8.0 0.00 0.00 0.00 84 1008.5
20260903114714 57 169 5.0 8.0 0.00 0.00 0.00 83 1008.6
20260903114213 57 181 4.0 6.0 0.00 0.00 0.00 84 1008.6
20260903113503 57 180 3.0 8.0 0.00 0.00 0.00 83 1008.6
20260903113003 57 181 4.0 9.0 0.00 0.00 0.00 84 1008.7
20260903112714 56 179 5.0 9.0 0.00 0.00 0.00 84 1008.7
20260903112003 56 165 4.0 9.0 0.00 0.00 0.00 84 1008.7
20260903111503 56 177 4.0 11.0 0.00 0.00 0.00 85 1008.7
20260903111003 56 178 5.0 11.0 0.00 0.00 0.00 84 1008.9
20260903110503 56 177 5.0 9.0 0.00 0.00 0.00 85 1008.8
20260903110213 56 182 4.0 9.0 0.00 0.00 0.00 84 1008.9
20260903105503 56 189 4.0 8.0 0.00 0.00 0.00 85 1009.0
20260903105213 56 196 4.0 8.0 0.00 0.00 0.00 84 1009.2
20260903104714 56 180 4.0 8.0 0.00 0.00 0.00 84 1009.1
20260903104004 56 179 4.0 9.0 0.00 0.00 0.00 83 1009.1
20260903103503 56 188 4.0 9.0 0.00 0.00 0.00 83 1009.3
20260903103003 56 193 4.0 8.0 0.00 0.00 0.00 83 1009.5
20260903102503 56 197 5.0 8.0 0.00 0.00 0.00 82 1009.3
20260903102003 56 194 4.0 8.0 0.00 0.00 0.00 82 1009.2
20260903101503 56 187 3.0 6.0 0.00 0.00 0.00 82 1009.4
20260903101003 56 209 3.0 7.0 0.00 0.00 0.00 81 1009.3
20260903100503 56 213 3.0 7.0 0.00 0.00 0.00 81 1009.3
20260903100004 56 190 4.0 6.0 0.00 0.00 0.00 80 1009.6
20260903095503 56 186 3.0 6.0 0.00 0.00 0.00 80 1009.5
20260903095003 56 189 3.0 7.0 0.00 0.00 0.00 80 1009.6
20260903094504 56 188 4.0 9.0 0.00 0.00 0.00 79 1009.6
20260903094003 57 208 3.0 9.0 0.00 0.00 0.00 79 1009.8
20260903093504 57 205 3.0 8.0 0.00 0.00 0.00 78 1009.6
20260903093004 56 203 4.0 8.0 0.00 0.00 0.00 78 1009.7
20260903092713 57 212 4.0 8.0 0.00 0.00 0.00 78 1009.9
20260903092003 57 199 3.0 8.0 0.00 0.00 0.00 77 1010.0
20260903091503 57 208 3.0 8.0 0.00 0.00 0.00 77 1010.0
20260903091003 56 205 4.0 8.0 0.00 0.00 0.00 76 1009.9
20260903090503 57 208 3.0 7.0 0.00 0.00 0.00 77 1009.8
20260903090003 56 242 2.0 6.0 0.00 0.00 0.00 76 1009.9
20260903085503 56 219 3.0 9.0 0.00 0.00 0.00 77 1009.9
20260903085003 56 194 4.0 9.0 0.00 0.00 0.00 76 1010.0
20260903084713 56 185 4.0 8.0 0.00 0.00 0.00 76 1009.9
20260903084004 56 217 2.0 7.0 0.00 0.00 0.00 77 1010.0
20260903083713 56 228 2.0 7.0 0.00 0.00 0.00 77 1010.1
20260903083214 56 215 3.0 10.0 0.00 0.00 0.00 78 1010.2
20260903082713 56 195 4.0 10.0 0.00 0.00 0.00 77 1010.0
20260903082003 56 184 5.0 9.0 0.00 0.00 0.00 78 1010.1
20260903081503 55 198 4.0 10.0 0.00 0.00 0.00 78 1010.2
20260903081214 56 194 4.0 10.0 0.00 0.00 0.00 78 1010.2
20260903080713 56 206 2.0 10.0 0.00 0.00 0.00 78 1010.1
20260903080003 55 242 2.0 8.0 0.00 0.00 0.00 78 1010.1
20260903075713 54 228 3.0 8.0 0.00 0.00 0.00 79 1010.3
20260903075003 54 177 4.0 8.0 0.00 0.00 0.00 80 1010.2
20260903074503 54 184 4.0 8.0 0.00 0.00 0.00 80 1010.2
20260903074214 54 195 3.0 7.0 0.00 0.00 0.00 80 1010.0
20260903073503 54 191 3.0 6.0 0.00 0.00 0.00 82 1010.1
20260903073214 54 182 3.0 6.0 0.00 0.00 0.00 82 1010.2
20260903072715 53 177 3.0 6.0 0.00 0.00 0.00 82 1010.3
20260903072003 53 179 4.0 6.0 0.00 0.00 0.00 82 1010.1
20260903071713 53 182 3.0 6.0 0.00 0.00 0.00 82 1010.2
20260903071003 53 175 3.0 8.0 0.00 0.00 0.00 83 1010.2
20260903070503 53 170 4.0 8.0 0.00 0.00 0.00 81 1010.3
20260903070213 53 168 3.0 7.0 0.00 0.00 0.00 82 1010.1
20260903065503 53 183 3.0 6.0 0.00 0.00 0.00 81 1010.5
20260903065003 52 189 3.0 6.0 0.00 0.00 0.00 83 1010.3
20260903064503 52 183 4.0 8.0 0.00 0.00 0.00 84 1010.3
20260903064213 52 185 4.0 8.0 0.00 0.00 0.00 84 1010.7
20260903063503 51 182 4.0 8.0 0.00 0.00 0.00 85 1010.6
20260903063213 51 176 3.0 7.0 0.00 0.00 0.00 86 1010.5
20260903062503 50 164 3.0 6.0 0.00 0.00 0.00 87 1010.6
20260903062004 50 159 4.0 6.0 0.00 0.00 0.00 88 1010.7
20260903061503 50 161 3.0 6.0 0.00 0.00 0.00 87 1010.5
20260903061003 49 179 3.0 6.0 0.00 0.00 0.00 88 1010.5
20260903060504 49 188 3.0 6.0 0.00 0.00 0.00 89 1010.8
20260903060213 49 187 3.0 7.0 0.00 0.00 0.00 89 1010.7
20260903055503 48 171 4.0 8.0 0.00 0.00 0.00 90 1010.8
20260903055003 48 167 4.0 9.0 0.00 0.00 0.00 91 1010.7
20260903054714 48 167 4.0 9.0 0.00 0.00 0.00 91 1010.8
20260903054003 47 148 3.0 4.0 0.00 0.00 0.00 93 1010.8
20260903053503 47 144 3.0 6.0 0.00 0.00 0.00 94 1010.6
20260903053003 46 151 3.0 6.0 0.00 0.00 0.00 95 1010.8
20260903052714 46 141 2.0 6.0 0.00 0.00 0.00 96 1010.8
20260903052213 46 108 1.0 4.0 0.00 0.00 0.00 96 1010.8
20260903051714 46 100 1.0 4.0 0.00 0.00 0.00 96 1010.9
20260903051213 45 123 1.0 4.0 0.00 0.00 0.00 97 1010.8
20260903050503 45 132 0.0 3.0 0.00 0.00 0.00 96 1010.8
20260903050213 45 68 0.0 2.0 0.00 0.00 0.00 96 1011.0
20260903045503 45 59 0.0 1.0 0.00 0.00 0.00 95 1010.8
20260903045003 46 43 0.0 2.0 0.00 0.00 0.00 95 1010.8
20260903044714 46 30 0.0 2.0 0.00 0.00 0.00 95 1011.0
20260903044003 46 27 1.0 2.0 0.00 0.00 0.00 95 1010.9
20260903043503 46 72 1.0 2.0 0.00 0.00 0.00 94 1010.7
20260903043003 47 106 0.0 2.0 0.00 0.00 0.00 93 1010.9
20260903042503 47 98 0.0 3.0 0.00 0.00 0.00 93 1010.9
20260903042004 47 128 0.0 3.0 0.00 0.00 0.00 93 1010.6
20260903041503 48 152 1.0 3.0 0.00 0.00 0.00 92 1010.9
20260903041003 48 160 1.0 3.0 0.00 0.00 0.00 92 1011.0
20260903040503 48 173 2.0 3.0 0.00 0.00 0.00 92 1010.9
20260903040003 48 178 2.0 3.0 0.00 0.00 0.00 91 1010.9
20260903035503 49 185 1.0 4.0 0.00 0.00 0.00 91 1011.1
20260903035003 49 186 1.0 4.0 0.00 0.00 0.00 91 1010.8
20260903034504 49 183 1.0 4.0 0.00 0.00 0.00 90 1010.9
20260903034003 49 190 2.0 6.0 0.00 0.00 0.00 89 1010.8
20260903033503 49 195 2.0 7.0 0.00 0.00 0.00 89 1010.8
20260903033214 49 197 2.0 7.0 0.00 0.00 0.00 89 1010.8
20260903032713 49 197 2.0 7.0 0.00 0.00 0.00 89 1010.9
20260903032214 49 200 2.0 4.0 0.00 0.00 0.00 89 1011.0
20260903031503 49 195 2.0 5.0 0.00 0.00 0.00 88 1011.1
20260903031003 49 199 2.0 6.0 0.00 0.00 0.00 87 1010.7
20260903030713 50 201 2.0 6.0 0.00 0.00 0.00 87 1010.9
20260903030214 50 203 2.0 6.0 0.00 0.00 0.00 86 1010.8
20260903025503 50 215 2.0 5.0 0.00 0.00 0.00 86 1010.9
20260903025214 50 218 2.0 5.0 0.00 0.00 0.00 86 1010.8
20260903024503 50 213 2.0 11.0 0.00 0.00 0.00 88 1011.1